This is the latest recevied weather packets stored in our database for station/object BR2DQ-13. If no packets are shown the sender has not sent any weather packets the latest 10 day(s).
| Time | Temp. | Humidity | Pressure | Rain* | Wind** | Luminosity | Snow |
|---|---|---|---|---|---|---|---|
| 1787953869 | 65° F | 89% | 733.1 mmHg | 0 in | - | - | - |
| 1787953270 | 65° F | 88% | 733.1 mmHg | 0 in | - | - | - |
| 1787952071 | 66° F | 88% | 733.2 mmHg | 0 in | - | - | - |
| 1787951471 | 66° F | 88% | 733.2 mmHg | 0 in | - | - | - |
| 1787950872 | 66° F | 88% | 733.2 mmHg | 0 in | - | - | - |
| 1787693010 | 64° F | 74% | 732.4 mmHg | 0 in | - | - | - |
| 1787691211 | 65° F | 73% | 732.3 mmHg | 0 in | - | - | - |
| 1787690612 | 65° F | 73% | 732.3 mmHg | 0 in | - | - | - |
| 1787688814 | 66° F | 73% | 732.2 mmHg | 0 in | - | - | - |
| 1787621648 | 79° F | 59% | 732.8 mmHg | 0 in | - | - | - |
| 1787621048 | 78° F | 59% | 732.7 mmHg | 0 in | - | - | - |
| 1787620448 | 78° F | 60% | 732.8 mmHg | 0 in | - | - | - |
| 1787619848 | 79° F | 58% | 732.7 mmHg | 0 in | - | - | - |
| 1787619248 | 78° F | 61% | 732.7 mmHg | 0 in | - | - | - |
| 1787618049 | 77° F | 65% | 732.7 mmHg | 0 in | - | - | - |
| 1787617449 | 75° F | 69% | 732.8 mmHg | 0 in | - | - | - |
| 1787616248 | 74° F | 79% | 732.8 mmHg | 0 in | - | - | - |
| 1787615648 | 73° F | 81% | 732.8 mmHg | 0 in | - | - | - |
| 1787615048 | 73° F | 80% | 732.8 mmHg | 0 in | - | - | - |
| 1787614446 | 72° F | 83% | 732.8 mmHg | 0 in | - | - | - |
| 1787614023 | 72° F | 84% | 732.8 mmHg | 0 in | - | - | - |
| 1787613423 | 72° F | 83% | 732.7 mmHg | 0 in | - | - | - |
| 1787612824 | 72° F | 84% | 732.7 mmHg | 0 in | - | - | - |
| 1787612224 | 71° F | 84% | 732.6 mmHg | 0 in | - | - | - |
| 1787611624 | 70° F | 87% | 732.7 mmHg | 0 in | - | - | - |
* Rain latest hour (hover to see other rain measurements)
** Current wind speed in m/s (hover to see current wind gust speed)